{"data":{"norad_id":58622,"intl_designator":"2023-203E","name":"STARLINK-31133","alt_names":[],"object_type":"PAYLOAD","status":"ACTIVE","operator":null,"country":"US","launch_date":"2023-12-23","launch_site_code":"AFETR","launch_vehicle":null,"mission":null,"orbit_class":"UNKNOWN","rcs_meters":null,"size_class":null,"mass_kg":null,"dimensions":null,"purposes":["comms"],"wikipedia_slug":null,"has_3d_model":false,"image_url":null,"decayed_at":null,"tle_current":{"epoch":"2026-05-25T00:25:10.849152Z","epoch_age_seconds":73569,"freshness":"FRESH","line1":"1 58622U 23203E   26145.01748668 -.00000045  00000+0  78764-5 0  9997","line2":"2 58622  43.0012 356.1306 0000876 266.9947  93.0804 15.27574908135239","mean_motion":15.27574908,"eccentricity":8.76e-5,"inclination_deg":43.0012,"raan_deg":356.1306,"arg_perigee_deg":266.9947,"mean_anomaly_deg":93.0804,"bstar":7.8764e-6,"rev_number":13523,"period_min":94.267062941309,"perigee_km":482.46330212417,"apogee_km":483.66538459952,"semimajor_km":6861.2013433618,"source":"CELESTRAK","updated_at":"2026-05-25T13:38:18.705673Z"}}}